Location: Hamburg
(53.5511°N, 9.9937°E)
Time: 16:25:47
(UTC+02:00)

ISS - Pass Details

Date: 21 March 2026
Orbit: 416 x 425 km, 51.6° (Epoch: 19 April)

Event Time Altitude Azimuth Distance (km) Brightness Sun altitude
Rises 21:29:16 0° 279° (W) 2,388 1.0 -24.7°
Reaches altitude 10° 21:31:35 10° 266° (W) 1,518 -0.4 -24.9°
Enters shadow 21:32:47 17° 251° (WSW) 1,148 -1.3 -25.0°
